[[{"header":{"parameterUnit":"m.s-1","parameterCategory":2,"la1":30.2991,"la2":30.254,"lo1":-89.0895,"lo2":-89.0444,"dy":0.0017,"dx":0.0017,"nx":28,"ny":28,"refTime":"2024-07-06T09:00:00:Z","depth":"0","parameterNumber":2,"parameterNumberName":"U-component_of_CURRENTS"},"data":[0,0,0,0,0,0,0,0,0,0,0,0,0,0,0,0,0,0,0,0,0,0,0,0,0,0,0,0,0,0,0,0,0,0,0,0,0,0,0,0,0,0,0,0,0,0,0,0,0,0,0,0,0,0,0,0,0,0,0.4766,0.4767,0,0.4855,0.4856,0.4856,0.4802,0.48,0.4798,0.4796,0.4801,0.4803,0.4805,0,0,0,0,0,0,0,0,0,0,0,0,0,0.4657,0.4659,0.4766,0.4767,0.4769,0.4855,0.4856,0.4856,0.4803,0.48,0.4798,0.4795,0.4801,0.4803,0.4805,0,0,0,0,0,0,0,0,0,0,0,0,0,0.4715,0.4659,0.4765,0.4757,0.4758,0.4855,0.4856,0.4857,0.4803,0.48,0.4797,0.4794,0.48,0.4803,0.4806,0.4885,0,0,0.4815,0.4816,0,0,0,0,0,0,0,0,0.4712,0.4718,0.4757,0.4758,0.4759,0.482,0.482,0.4864,0.4804,0.4779,0.4796,0.4793,0.4806,0.4808,0.4824,0.4885,0.4885,0.4815,0.4817,0.4818,0.4819,0,0,0,0,0,0,0,0.4708,0.4715,0.4795,0.4759,0.476,0.4787,0.479,0.4828,0.4802,0.4781,0.4779,0.48,0.4805,0.4821,0.4824,0.4885,0.4815,0.4818,0.482,0.4821,0.5052,0.5056,0,0,0,0,0,0,0.4707,0.4711,0.4792,0.4798,0.4735,0.4791,0.4795,0.4798,0.4803,0.4804,0.4803,0.4797,0.4818,0.482,0.4824,0.4951,0.4818,0.4821,0.4823,0.5047,0.5053,0.5057,0,0,0,0,0,0,0.4704,0.4713,0.4789,0.4762,0.4774,0.4796,0.4801,0.4802,0.4823,0.4822,0.4818,0.4823,0.4816,0.4819,0.4885,0.4949,0.4822,0.4825,0.5042,0.5049,0.5055,0.5184,0,0,0,0,0,0,0.4701,0.4711,0.4721,0.4762,0.4776,0.4857,0.4805,0.4806,0.4843,0.4837,0.4839,0.4836,0.4813,0.4881,0.4888,0.495,0.4828,0.5037,0.5045,0.5053,0.5174,0.5194,0.5211,0,0,0,0,0,0.4696,0.4711,0.472,0.4731,0.4785,0.486,0.487,0.4871,0.4847,0.4874,0.4885,0.4836,0.4936,0.4888,0.4894,0.4959,0.5033,0.5043,0.5052,0.5166,0.519,0.521,0,0,0,0,0,0,0.4659,0.4709,0.4719,0.4745,0.4809,0.4852,0.4875,0.4891,0.4924,0.491,0.4895,0.4896,0.4979,0.4965,0.4911,0.5054,0.4977,0.4988,0.5061,0.5083,0.5101,0.5106,0.483,0,0,0,0,0,0.4665,0.4686,0.4752,0.4777,0.4806,0.4851,0.4882,0.4896,0.4932,0.4941,0.4957,0.498,0.5031,0.5049,0.5084,0.5166,0.5189,0.5215,0.5233,0.5249,0.5262,0.5349,0.5376,0.5089,0.5089,0.5089,0,0,0.4653,0.469,0.4698,0.4773,0.4809,0.4889,0.4859,0.4916,0.4989,0.4941,0.5031,0.5048,0.5071,0.516,0.5195,0.515,0.5356,0.5261,0.5273,0.5278,0.5362,0.5389,0.5414,0.5096,0.5095,0.5094,0,0,0.4667,0.4681,0.4719,0.4785,0.4868,0.4913,0.4939,0.5012,0.5041,0.514,0.5133,0.5195,0.526,0.53,0.5324,0.5473,0.5454,0.5484,0.5574,0.566,0.5684,0.5704,0.5818,0.5848,0.5487,0.5487,0.5487,0,0.4652,0.4726,0.4746,0.4824,0.4899,0.4932,0.5028,0.5077,0.5167,0.5219,0.5177,0.532,0.5331,0.5459,0.5509,0.5514,0.5565,0.5481,0.5682,0.5703,0.5722,0.5833,0.5864,0.5494,0.5493,0.5493,0.5492,0,0.472,0.4793,0.4825,0.4938,0.5016,0.5101,0.5191,0.5265,0.5304,0.5355,0.5478,0.5503,0.5578,0.5607,0.5602,0.5759,0.5758,0.5697,0.5617,0.5758,0.5867,0.5897,0.5505,0.5502,0.55,0.5498,0,0,0.4655,0.4838,0.4851,0.4952,0.5096,0.5172,0.5301,0.5444,0.5524,0.5589,0.5704,0.5796,0.5784,0.5815,0.5822,0.5897,0.6092,0.5862,0.5863,0.5962,0.6321,0.624,0.6264,0.6062,0.6066,0.607,0.6361,0,0.4716,0.4892,0.497,0.5156,0.5271,0.5364,0.5481,0.56,0.5678,0.5786,0.5826,0.5918,0.587,0.5908,0.5983,0.6061,0.617,0.6022,0.6182,0.6188,0.6085,0.6295,0.5919,0.6137,0.6389,0.6394,0.6398,0,0.4778,0.4901,0.5091,0.5311,0.5362,0.5464,0.5667,0.5775,0.5913,0.5963,0.6045,0.6064,0.6205,0.6115,0.6327,0.6235,0.6306,0.6352,0.6362,0.6254,0.6161,0.603,0.6181,0.6022,0.6443,0.644,0.6436,0,0.4778,0.4995,0.5159,0.5236,0.5463,0.5558,0.5669,0.5824,0.5929,0.6072,0.6141,0.6266,0.634,0.6438,0.6533,0.645,0.676,0.6643,0.6654,0.665,0.6344,0.6303,0.6335,0.6819,0.6819,0.6818,0.6817,0,0.4853,0.4987,0.5165,0.5261,0.5445,0.5576,0.575,0.5867,0.6015,0.6145,0.6212,0.6329,0.6423,0.6583,0.6638,0.6768,0.6854,0.6733,0.6733,0.6385,0.6346,0.6199,0.6146,0.6829,0.6826,0.6824,0.6822,0,0.4891,0.499,0.5189,0.54,0.5462,0.5593,0.5802,0.5932,0.6039,0.6212,0.6264,0.6441,0.6639,0.6757,0.6957,0.6907,0.6836,0.7058,0.6664,0.6611,0.6374,0.6342,0.6214,0.6046,0.7092,0.7092,0.7092,0,0.4965,0.5066,0.5269,0.5381,0.549,0.5667,0.5801,0.5938,0.6062,0.6278,0.6373,0.6598,0.6739,0.7005,0.6974,0.709,0.6896,0.6802,0.6549,0.6374,0.634,0.6111,0.5961,0.6229,0.6222,0.6216,0.6212,0,0.5143,0.5175,0.5329,0.5495,0.5643,0.5778,0.5951,0.6018,0.6176,0.6269,0.6433,0.6553,0.6778,0.6679,0.6809,0.6819,0.6425,0.6685,0.658,0.576,0.5433,0.5262,0.6074,0.6159,0.6165,0.6168,0.6171,0.6173,0.5283,0.5383,0.5518,0.5635,0.578,0.5834,0.5823,0.5961,0.6027,0.6023,0.6313,0.6292,0.6337,0.6423,0.6422,0.6111,0.6156,0.5837,0.5856,0.5676,0.5351,0.6091,0.6113,0.6118,0.6122,0.6125,0.6129,0,0.5463,0.5517,0.5665,0.574,0.5769,0.582,0.588,0.575,0.5666,0.579,0.5811,0.5728,0.5642,0.566,0.5471,0.527,0.5005,0.5135,0.4687,0.4615,0.5331,0.5126,0.4836,0.4836,0.4836,0.4836,0.4837,0.4837,0.5592,0.5684,0.565,0.5636,0.5652,0.552,0.5431,0.5257,0.5221,0.4992,0.4847,0.4898,0.505,0.5016,0.4783,0.4674,0.4363,0.4116,0.4253,0.4714,0.4777,0.4837,0.4629,0.4241,0.424,0.3207,0.32,0.3195]},{"header":{"parameterUnit":"m.s-1","parameterCategory":2,"la1":30.2991,"la2":30.254,"lo1":-89.0895,"lo2":-89.0444,"dy":0.0017,"dx":0.0017,"nx":28,"ny":28,"refTime":"2024-07-06T09:00:00:Z","depth":"0","parameterNumber":3,"parameterNumberName":"V-component_of_CURRENTS"},"data":[0,0,0,0,0,0,0,0,0,0,0,0,0,0,0,0,0,0,0,0,0,0,0,0,0,0,0,0,0,0,0,0,0,0,0,0,0,0,0,0,0,0,0,0,0,0,0,0,0,0,0,0,0,0,0,0,0,0,-0.0195,-0.0195,0,-0.0259,-0.026,-0.0261,-0.0296,-0.0296,-0.0295,-0.0295,-0.0414,-0.0418,-0.0421,0,0,0,0,0,0,0,0,0,0,0,0,0,-0.0203,-0.0202,-0.0195,-0.0195,-0.0195,-0.0258,-0.026,-0.0261,-0.0296,-0.0296,-0.0295,-0.0295,-0.0413,-0.0417,-0.0422,0,0,0,0,0,0,0,0,0,0,0,0,0,-0.0231,-0.0202,-0.0195,-0.0217,-0.0219,-0.0258,-0.026,-0.0261,-0.0296,-0.0296,-0.0295,-0.0295,-0.0412,-0.0417,-0.0422,-0.0465,0,0,-0.0438,-0.044,0,0,0,0,0,0,0,0,-0.0229,-0.0231,-0.0213,-0.0215,-0.0218,-0.0265,-0.0306,-0.0331,-0.0296,-0.0272,-0.0295,-0.0295,-0.0367,-0.0375,-0.0395,-0.0471,-0.0476,-0.0439,-0.0442,-0.0444,-0.0446,0,0,0,0,0,0,0,-0.0227,-0.0229,-0.0225,-0.0214,-0.0216,-0.0258,-0.0261,-0.0312,-0.0326,-0.0274,-0.0276,-0.0275,-0.0369,-0.039,-0.0398,-0.0477,-0.0438,-0.0443,-0.0446,-0.0448,-0.0571,-0.0571,0,0,0,0,0,0,-0.0204,-0.0227,-0.0223,-0.0226,-0.0217,-0.0257,-0.0261,-0.0254,-0.0325,-0.0333,-0.0276,-0.0277,-0.0381,-0.0392,-0.0402,-0.042,-0.0444,-0.0449,-0.0452,-0.0571,-0.0571,-0.0571,0,0,0,0,0,0,-0.0204,-0.0203,-0.022,-0.0225,-0.0229,-0.0256,-0.0249,-0.0256,-0.0269,-0.0324,-0.0335,-0.0281,-0.0381,-0.0395,-0.0441,-0.0426,-0.0451,-0.0456,-0.0571,-0.0571,-0.0571,-0.0479,0,0,0,0,0,0,-0.0204,-0.0203,-0.0199,-0.0223,-0.0228,-0.0224,-0.025,-0.0257,-0.0268,-0.0269,-0.0333,-0.0343,-0.0382,-0.0433,-0.0447,-0.0434,-0.046,-0.057,-0.0571,-0.0571,-0.0482,-0.0476,-0.0471,0,0,0,0,0,-0.0204,-0.0181,-0.0199,-0.0198,-0.0218,-0.0222,-0.0229,-0.0251,-0.0268,-0.0265,-0.0316,-0.0341,-0.0444,-0.0438,-0.0454,-0.0441,-0.057,-0.0571,-0.0571,-0.0484,-0.0477,-0.0471,0,0,0,0,0,0,-0.0176,-0.0183,-0.0202,-0.0182,-0.0197,-0.0226,-0.0223,-0.0247,-0.0286,-0.029,-0.0351,-0.0365,-0.0401,-0.044,-0.0432,-0.0479,-0.0509,-0.0512,-0.0437,-0.0431,-0.0426,-0.0384,-0.0465,0,0,0,0,0,-0.0171,-0.016,-0.0177,-0.0164,-0.0166,-0.02,-0.0209,-0.0222,-0.0255,-0.0271,-0.0313,-0.0366,-0.0417,-0.0436,-0.0487,-0.0515,-0.0514,-0.0517,-0.0511,-0.0506,-0.0484,-0.0502,-0.0495,-0.0572,-0.0572,-0.0572,0,0,-0.0154,-0.0159,-0.0152,-0.0159,-0.0174,-0.0164,-0.0204,-0.0202,-0.02,-0.028,-0.0293,-0.0354,-0.0424,-0.0454,-0.0471,-0.0479,-0.0474,-0.0506,-0.0501,-0.0481,-0.0502,-0.0494,-0.0487,-0.0572,-0.0572,-0.0572,0,0,-0.0103,-0.0121,-0.0091,-0.0101,-0.0113,-0.0134,-0.0129,-0.0153,-0.0169,-0.0197,-0.0256,-0.0299,-0.0372,-0.0409,-0.0443,-0.044,-0.0453,-0.0461,-0.039,-0.0408,-0.0401,-0.0395,-0.0334,-0.0323,-0.0449,-0.0449,-0.0449,0,-0.0086,-0.0056,-0.0084,-0.0062,-0.0063,-0.0113,-0.0085,-0.0111,-0.0148,-0.0157,-0.0184,-0.0283,-0.0345,-0.0379,-0.038,-0.0423,-0.0413,-0.0406,-0.0397,-0.0392,-0.0387,-0.0326,-0.0316,-0.0444,-0.0445,-0.0445,-0.0446,0,-0.0007,0.0001,0.002,0.0026,0.0021,0.0035,0.0004,-0.0006,-0.0039,-0.0066,-0.0104,-0.0188,-0.0238,-0.0272,-0.0328,-0.0331,-0.0324,-0.0393,-0.0404,-0.0373,-0.0311,-0.0302,-0.0438,-0.044,-0.0441,-0.0442,0,0,0.0058,0.0073,0.0076,0.0085,0.0066,0.0076,0.0077,0.0067,0.0078,0.0025,0.004,-0.0063,-0.0103,-0.0144,-0.0218,-0.0237,-0.0193,-0.0291,-0.0294,-0.0208,-0.0168,-0.0142,-0.0129,-0.0267,-0.0266,-0.0265,-0.0117,0,0.0121,0.0182,0.0168,0.0209,0.0231,0.0185,0.0194,0.0175,0.0144,0.0145,0.0065,0.0044,-0.0057,-0.0073,-0.0113,-0.0186,-0.0173,-0.0222,-0.0229,-0.0227,-0.0193,-0.0121,-0.0125,0.0006,-0.0108,-0.0107,-0.0106,0,0.0196,0.0223,0.0286,0.0294,0.0303,0.0321,0.0325,0.0328,0.0303,0.0285,0.0248,0.0186,0.0153,0.0057,-0.0002,-0.003,-0.0079,-0.0127,-0.0125,-0.0127,-0.0186,-0.0058,0.0027,-0.0241,-0.0091,-0.0093,-0.0094,0,0.0257,0.0295,0.0349,0.0353,0.0366,0.0386,0.0391,0.0375,0.04,0.0388,0.0425,0.0339,0.035,0.0238,0.0146,0.0069,0.0112,-0.0014,-0.0015,-0.0011,-0.0027,-0.0026,-0.0188,-0.0031,-0.0031,-0.0031,-0.0032,0,0.0314,0.0347,0.0385,0.0413,0.0468,0.0459,0.051,0.0504,0.0534,0.0615,0.0511,0.0588,0.0392,0.0383,0.024,0.0189,0.0194,0.0041,0.0025,0.001,0.0012,-0.0236,-0.04,-0.0026,-0.0027,-0.0028,-0.0029,0,0.0342,0.0377,0.0434,0.048,0.0497,0.0536,0.0591,0.0644,0.0669,0.0783,0.0804,0.0807,0.0827,0.0671,0.0555,0.0367,0.0142,0.0254,0.0297,0.0282,-0.0045,-0.0202,-0.0313,-0.0425,0.0249,0.025,0.0251,0,0.036,0.0398,0.048,0.0529,0.0549,0.0605,0.0661,0.0699,0.0783,0.0949,0.1041,0.1112,0.1231,0.1095,0.079,0.0606,0.0308,0.0402,0.0214,-0.0022,-0.021,-0.0326,-0.0424,0.0261,0.0262,0.0263,0.0263,0,0.0375,0.0411,0.0463,0.0577,0.0654,0.0738,0.0838,0.0943,0.1056,0.1229,0.1498,0.1631,0.1527,0.1371,0.1064,0.0847,0.0183,0.0414,0.013,-0.0229,-0.0326,-0.0454,0.0171,0.0272,0.0271,0.0271,0.027,0.027,0.0386,0.0425,0.0524,0.0625,0.0727,0.0901,0.103,0.122,0.1468,0.183,0.1888,0.2215,0.1826,0.144,0.1079,0.0338,0.0319,0.0056,-0.0103,-0.0187,-0.0356,0.0336,0.0418,0.0418,0.0418,0.0418,0.0418,0,0.0411,0.0476,0.0569,0.0727,0.087,0.0922,0.1174,0.1388,0.1779,0.2173,0.2489,0.2554,0.2049,0.1428,0.0453,-0.0097,-0.035,-0.0426,-0.065,-0.072,-0.0129,-0.0198,-0.0198,-0.0198,-0.0198,-0.0197,-0.0197,-0.0197,0.0438,0.0528,0.0584,0.0827,0.0959,0.1223,0.1411,0.1786,0.2132,0.2719,0.3023,0.3193,0.2681,0.0861,-0.0406,-0.0716,-0.1122,-0.1173,-0.137,-0.1059,-0.1029,-0.1001,-0.1106,-0.1297,-0.1299,-0.1912,-0.1919,-0.1924]}],[{"header":{"parameterUnit":"m.s-1","parameterCategory":2,"la1":30.2991,"la2":30.254,"lo1":-89.0895,"lo2":-89.0444,"dy":0.0017,"dx":0.0017,"nx":28,"ny":28,"refTime":"2024-07-06T09:00:00:Z","depth":"2","parameterNumber":2,"parameterNumberName":"U-component_of_CURRENTS"},"data":[0,0,0,0,0,0,0,0,0,0,0,0,0,0,0,0,0,0,0,0,0,0,0,0,0,0,0,0,0,0,0,0,0,0,0,0,0,0,0,0,0,0,0,0,0,0,0,0,0,0,0,0,0,0,0,0,0,0,0.337,0.3372,0,0.352,0.3522,0.3524,0.3523,0.3521,0.3519,0.3517,0.349,0.3491,0.3492,0,0,0,0,0,0,0,0,0,0,0,0,0,0.3257,0.3258,0.337,0.3372,0.3374,0.352,0.3522,0.3524,0.3523,0.3521,0.3519,0.3516,0.3489,0.3491,0.3492,0,0,0,0,0,0,0,0,0,0,0,0,0,0.3346,0.3258,0.337,0.3391,0.3395,0.352,0.3522,0.3525,0.3524,0.3521,0.3518,0.3515,0.3489,0.3491,0.3492,0.356,0,0,0.3497,0.3498,0,0,0,0,0,0,0,0,0.3341,0.335,0.3386,0.339,0.3394,0.35,0.3472,0.3528,0.3525,0.3474,0.3517,0.3514,0.3479,0.3482,0.3518,0.3559,0.3558,0.3497,0.3498,0.3499,0.3499,0,0,0,0,0,0,0,0.3334,0.3344,0.3429,0.3389,0.3393,0.3454,0.3461,0.3485,0.3488,0.3479,0.3479,0.3497,0.348,0.3517,0.3517,0.3557,0.3497,0.3499,0.35,0.35,0.367,0.3674,0,0,0,0,0,0,0.3311,0.3338,0.3424,0.3434,0.336,0.3457,0.3466,0.3469,0.3491,0.3494,0.35,0.3497,0.3516,0.3515,0.3516,0.3612,0.3499,0.35,0.3501,0.3667,0.3671,0.3675,0,0,0,0,0,0,0.3308,0.3317,0.3418,0.339,0.3407,0.3461,0.3465,0.3473,0.3548,0.3509,0.3507,0.3569,0.3513,0.3513,0.3545,0.3609,0.3501,0.3503,0.3663,0.3668,0.3673,0.3794,0,0,0,0,0,0,0.3303,0.3314,0.3332,0.3388,0.3408,0.349,0.3468,0.3478,0.3561,0.356,0.3568,0.3561,0.3511,0.3543,0.3547,0.361,0.3504,0.3658,0.3665,0.3671,0.3786,0.3803,0.3818,0,0,0,0,0,0.3299,0.3327,0.3332,0.3344,0.3422,0.3491,0.3508,0.3537,0.3568,0.3597,0.3603,0.3562,0.3588,0.3547,0.3551,0.3616,0.3655,0.3663,0.3671,0.3779,0.38,0.3818,0,0,0,0,0,0,0.3285,0.3332,0.3337,0.3377,0.3429,0.3491,0.3538,0.3583,0.3627,0.3626,0.3604,0.3597,0.3654,0.363,0.3586,0.3688,0.3619,0.3628,0.37,0.372,0.3735,0.3743,0.3505,0,0,0,0,0,0.3292,0.3322,0.3374,0.3407,0.344,0.3511,0.3558,0.3578,0.3617,0.3639,0.3641,0.3655,0.3694,0.3698,0.3706,0.3766,0.378,0.3814,0.383,0.3844,0.3856,0.3972,0.4,0.3701,0.3701,0.3701,0,0,0.3292,0.3327,0.3342,0.3408,0.3457,0.3523,0.3532,0.3604,0.3655,0.3627,0.3693,0.3715,0.3726,0.3776,0.3801,0.3759,0.3932,0.3854,0.3865,0.3869,0.3983,0.4012,0.4038,0.3707,0.3706,0.3705,0,0,0.3309,0.3345,0.3377,0.3433,0.3509,0.3558,0.3596,0.3671,0.3695,0.3768,0.3771,0.3837,0.3872,0.3895,0.3917,0.4042,0.4021,0.405,0.4129,0.4243,0.4268,0.4291,0.4324,0.4349,0.405,0.405,0.405,0,0.3312,0.3359,0.3401,0.3459,0.3509,0.3587,0.3642,0.3704,0.3773,0.3808,0.3786,0.3931,0.3936,0.4047,0.4082,0.408,0.4113,0.4049,0.4265,0.4287,0.4308,0.4337,0.4363,0.4057,0.4056,0.4055,0.4055,0,0.3353,0.3408,0.3445,0.3534,0.3587,0.3659,0.3727,0.3799,0.3858,0.3909,0.402,0.4051,0.4139,0.4165,0.4161,0.4325,0.4288,0.4278,0.4212,0.4346,0.4367,0.4392,0.4067,0.4064,0.4062,0.406,0,0,0.3332,0.3447,0.3467,0.3514,0.3635,0.3683,0.3783,0.3889,0.3991,0.405,0.4183,0.4261,0.4306,0.4337,0.4362,0.4452,0.4627,0.4434,0.4437,0.446,0.4839,0.4687,0.4698,0.4666,0.4671,0.4676,0.4785,0,0.3365,0.3448,0.3511,0.3622,0.3674,0.3775,0.3862,0.396,0.4058,0.4204,0.4282,0.4408,0.4364,0.4443,0.4534,0.4602,0.4702,0.4595,0.4712,0.4714,0.4559,0.4726,0.4338,0.4394,0.4808,0.4812,0.4815,0,0.3395,0.3447,0.3522,0.3652,0.3689,0.3786,0.3954,0.4044,0.4246,0.4313,0.4458,0.4542,0.4688,0.4664,0.4823,0.4758,0.4828,0.4867,0.4872,0.4707,0.461,0.4334,0.4422,0.4855,0.4852,0.4849,0.4846,0,0.3343,0.3472,0.3523,0.3571,0.3723,0.3805,0.392,0.409,0.4184,0.4427,0.4546,0.4694,0.4819,0.4913,0.4988,0.4935,0.5172,0.5101,0.5027,0.5013,0.469,0.4639,0.5286,0.5286,0.5286,0.5286,0.5285,0,0.3357,0.3415,0.3519,0.3574,0.3665,0.3784,0.3942,0.4074,0.4298,0.4428,0.4618,0.4749,0.4907,0.5051,0.5076,0.5111,0.5242,0.5074,0.5062,0.4716,0.4669,0.5069,0.5042,0.529,0.5289,0.5288,0.5287,0,0.3302,0.3367,0.3464,0.362,0.3649,0.374,0.395,0.41,0.4284,0.4486,0.4578,0.484,0.4984,0.5116,0.5287,0.5213,0.5269,0.5278,0.4822,0.4754,0.4996,0.4975,0.5153,0.5149,0.5146,0.5143,0.5141,0,0.3335,0.3334,0.3464,0.3517,0.3608,0.3735,0.3848,0.4064,0.4206,0.4491,0.4598,0.4856,0.495,0.5125,0.511,0.5135,0.5278,0.4786,0.4617,0.5028,0.4999,0.4982,0.4965,0.4225,0.4215,0.4208,0.4201,0,0.3346,0.3353,0.3395,0.349,0.362,0.3707,0.388,0.3943,0.419,0.4335,0.4505,0.461,0.4819,0.4666,0.4752,0.4704,0.4723,0.4623,0.5247,0.4312,0.4161,0.4129,0.4142,0.4132,0.4139,0.4144,0.4148,0.4151,0.3369,0.3354,0.3383,0.3452,0.3569,0.3623,0.3631,0.379,0.3884,0.3981,0.422,0.4241,0.4332,0.4224,0.4123,0.4073,0.4376,0.4161,0.4182,0.4213,0.408,0.3931,0.383,0.3835,0.3839,0.3843,0.3846,0,0.3326,0.3297,0.3354,0.3389,0.3423,0.3536,0.3604,0.3537,0.3516,0.3668,0.3734,0.348,0.3404,0.3528,0.3334,0.3323,0.3268,0.3189,0.3085,0.3158,0.3223,0.3036,0.2511,0.2506,0.2502,0.2498,0,0,0.3297,0.3263,0.3219,0.319,0.323,0.3158,0.3133,0.3061,0.3075,0.2966,0.2969,0.3219,0.3397,0.2901,0.2848,0.2642,0.2866,0.2536,0.3617,0.3567,0.3625,0.3805,0.3603,0,0,0,0,0]},{"header":{"parameterUnit":"m.s-1","parameterCategory":2,"la1":30.2991,"la2":30.254,"lo1":-89.0895,"lo2":-89.0444,"dy":0.0017,"dx":0.0017,"nx":28,"ny":28,"refTime":"2024-07-06T09:00:00:Z","depth":"2","parameterNumber":3,"parameterNumberName":"V-component_of_CURRENTS"},"data":[0,0,0,0,0,0,0,0,0,0,0,0,0,0,0,0,0,0,0,0,0,0,0,0,0,0,0,0,0,0,0,0,0,0,0,0,0,0,0,0,0,0,0,0,0,0,0,0,0,0,0,0,0,0,0,0,0,0,0.0121,0.0121,0,0.0062,0.0061,0.0061,0.0023,0.0023,0.0023,0.0023,-0.0052,-0.0054,-0.0056,0,0,0,0,0,0,0,0,0,0,0,0,0,0.011,0.0111,0.0121,0.0121,0.012,0.0063,0.0061,0.006,0.0023,0.0023,0.0023,0.0023,-0.0052,-0.0054,-0.0057,0,0,0,0,0,0,0,0,0,0,0,0,0,0.0087,0.0111,0.0121,0.0097,0.0095,0.0063,0.0061,0.006,0.0023,0.0023,0.0023,0.0023,-0.0051,-0.0054,-0.0057,-0.0078,0,0,-0.0066,-0.0068,0,0,0,0,0,0,0,0,0.0088,0.0087,0.0101,0.0099,0.0096,0.0053,0.003,0.0014,0.0023,0.0047,0.0023,0.0024,-0.0017,-0.0023,-0.0038,-0.0081,-0.0085,-0.0067,-0.0069,-0.007,-0.0071,0,0,0,0,0,0,0,0.009,0.0089,0.0095,0.0101,0.0098,0.0058,0.0055,0.0026,0.0013,0.0045,0.0043,0.0041,-0.0019,-0.0035,-0.004,-0.0086,-0.0067,-0.0069,-0.0071,-0.0072,-0.0122,-0.0122,0,0,0,0,0,0,0.0108,0.0091,0.0097,0.0093,0.0096,0.0059,0.0055,0.0064,0.0013,0.0007,0.0041,0.004,-0.003,-0.0036,-0.0043,-0.0025,-0.007,-0.0073,-0.0075,-0.0123,-0.0122,-0.0121,0,0,0,0,0,0,0.0108,0.011,0.0099,0.0092,0.0089,0.006,0.0069,0.0063,0.0044,0.0011,0.0004,0.0029,-0.003,-0.0038,-0.0053,-0.003,-0.0074,-0.0077,-0.0123,-0.0122,-0.0122,-0.0018,0,0,0,0,0,0,0.0108,0.011,0.0116,0.0094,0.009,0.01,0.0069,0.0062,0.0044,0.0042,-0.0002,-0.0009,-0.003,-0.0048,-0.0056,-0.0035,-0.0079,-0.0124,-0.0123,-0.0122,-0.0022,-0.0014,-0.0007,0,0,0,0,0,0.0108,0.0131,0.0117,0.0117,0.0101,0.0101,0.0096,0.0072,0.0044,0.005,0.002,-0.0008,-0.0047,-0.005,-0.006,-0.0039,-0.0125,-0.0123,-0.0122,-0.0026,-0.0016,-0.0007,0,0,0,0,0,0,0.0132,0.0129,0.0113,0.0133,0.0123,0.0097,0.0098,0.007,0.0047,0.0045,-0.0002,-0.0009,-0.0015,-0.0046,-0.0048,-0.0052,-0.0091,-0.0091,-0.0014,-0.0005,0.0002,0.0035,-0.0082,0,0,0,0,0,0.0139,0.0153,0.014,0.0154,0.0152,0.0117,0.0109,0.0099,0.0078,0.0066,0.0038,0.0006,-0.0019,-0.0026,-0.005,-0.0054,-0.0089,-0.0048,-0.0041,-0.0034,-0.0014,-0.0047,-0.004,-0.0117,-0.0117,-0.0117,0,0,0.0152,0.0151,0.0158,0.0159,0.0144,0.0164,0.0113,0.0118,0.0136,0.0062,0.0074,0.003,-0.0016,-0.0011,-0.0017,-0.0032,-0.0034,-0.0032,-0.0025,-0.001,-0.0045,-0.0037,-0.003,-0.0117,-0.0117,-0.0117,0,0,0.02,0.0184,0.0217,0.0215,0.0211,0.0197,0.02,0.0182,0.0175,0.0176,0.0128,0.0102,0.0067,0.0047,0.0027,0.0058,0.0004,0.0044,0.0117,0.0086,0.0092,0.0098,0.0053,0.0054,0.0054,0.0054,0.0054,0,0.021,0.0258,0.0225,0.0257,0.0272,0.0217,0.0263,0.0244,0.0227,0.0242,0.0201,0.0151,0.01,0.0104,0.0111,0.0078,0.0047,0.0089,0.0098,0.0103,0.0106,0.0059,0.0059,0.0059,0.0058,0.0058,0.0057,0,0.0289,0.0322,0.0342,0.0367,0.0375,0.0406,0.0388,0.0395,0.0369,0.0358,0.0354,0.0277,0.0254,0.0222,0.0173,0.0179,0.0141,0.0109,0.0081,0.0121,0.0068,0.0065,0.0066,0.0065,0.0063,0.0062,0,0,0.0325,0.0389,0.0394,0.0444,0.0443,0.0473,0.0497,0.0527,0.0578,0.0514,0.056,0.0473,0.0424,0.0396,0.032,0.028,0.0256,0.0213,0.0209,0.018,0.018,0.0135,0.0127,0.0227,0.0228,0.0228,0.0129,0,0.0398,0.0508,0.0508,0.0608,0.0668,0.064,0.0689,0.0703,0.0695,0.0724,0.062,0.0624,0.0491,0.0483,0.0417,0.0303,0.0256,0.0285,0.0136,0.0131,0.0096,0.0126,0.0157,0.0071,0.0126,0.0126,0.0126,0,0.0475,0.0549,0.0673,0.0779,0.0803,0.0852,0.0939,0.0979,0.0984,0.0974,0.0926,0.0842,0.0753,0.064,0.0453,0.0478,0.0343,0.0239,0.0233,0.0159,0.0083,0.004,0.0064,0.0121,0.0121,0.0121,0.0122,0,0.0547,0.0662,0.0781,0.081,0.0911,0.0974,0.1027,0.1071,0.1134,0.1134,0.116,0.1032,0.0982,0.0787,0.0531,0.0502,0.0332,0.0266,0.0096,0.009,0.0072,0.0065,0.0153,0.0154,0.0154,0.0154,0.0154,0,0.063,0.0725,0.0839,0.0901,0.108,0.1098,0.1258,0.1296,0.1344,0.1441,0.1298,0.1313,0.102,0.0866,0.0613,0.0347,0.0387,0.0121,0.0071,0.0106,0.0103,0.0111,0.0107,0.015,0.0151,0.0152,0.0153,0,0.0697,0.0762,0.0911,0.1051,0.1123,0.1249,0.1407,0.1505,0.154,0.1648,0.1646,0.1528,0.133,0.1021,0.0724,0.0477,0.0218,0.0118,0.0169,0.0127,-0.0029,-0.0026,-0.0084,-0.0086,-0.0088,-0.0089,-0.009,0,0.0749,0.0837,0.1027,0.1145,0.1223,0.1403,0.1529,0.1606,0.1716,0.178,0.1846,0.1691,0.1589,0.1123,0.0691,0.0263,0.0215,0.0022,-0.0038,-0.0006,-0.0049,-0.0043,-0.0038,-0.0032,-0.0033,-0.0033,-0.0034,0,0.0856,0.0913,0.1033,0.1263,0.1424,0.1618,0.1807,0.1911,0.2005,0.2077,0.2141,0.2056,0.1625,0.1192,0.0624,0.0337,0.0083,-0.0005,0.004,0.0025,0.0035,-0.0004,0.0,-0.0039,-0.0038,-0.0038,-0.0038,-0.0037,0.0928,0.1034,0.1182,0.14,0.159,0.1816,0.1967,0.2128,0.2298,0.2387,0.2325,0.2179,0.1734,0.0965,0.0509,0.0032,0.0044,-0.0139,-0.0134,-0.0129,-0.0103,-0.0096,-0.0192,-0.0192,-0.0192,-0.0193,-0.0193,0,0.1029,0.1136,0.1323,0.1579,0.178,0.1872,0.2142,0.226,0.2448,0.2471,0.2471,0.1987,0.1515,0.1004,0.029,-0.0129,-0.015,-0.0255,-0.0188,-0.018,-0.0173,-0.0148,-0.025,-0.0251,-0.0253,-0.0254,0,0,0.1094,0.1257,0.1345,0.169,0.1874,0.2133,0.2279,0.2426,0.2503,0.2493,0.2373,0.2192,0.1611,0.1082,0.0536,0.014,0.0076,0.0063,0.0153,0.0307,0.0319,-0.0063,-0.001,0,0,0,0,0]}],[{"header":{"parameterUnit":"m.s-1","parameterCategory":2,"la1":30.2991,"la2":30.254,"lo1":-89.0895,"lo2":-89.0444,"dy":0.0017,"dx":0.0017,"nx":28,"ny":28,"refTime":"2024-07-06T09:00:00:Z","depth":"4","parameterNumber":2,"parameterNumberName":"U-component_of_CURRENTS"},"data":[0,0,0,0,0,0,0,0,0,0,0,0,0,0,0,0,0,0,0,0,0,0,0,0,0,0,0,0,0,0,0,0,0,0,0,0,0,0,0,0,0,0,0,0,0,0,0,0,0,0,0,0,0,0,0,0,0,0,0.1896,0.1896,0,0.1906,0.1905,0.1905,0.1903,0.1904,0.1904,0.1905,0.2027,0.2029,0.2032,0,0,0,0,0,0,0,0,0,0,0,0,0,0.1807,0.1808,0.1895,0.1897,0.1898,0.1906,0.1905,0.1904,0.1903,0.1904,0.1905,0.1905,0.2026,0.2029,0.2032,0,0,0,0,0,0,0,0,0,0,0,0,0,0.1825,0.1809,0.1895,0.1905,0.1907,0.1906,0.1905,0.1904,0.1903,0.1904,0.1905,0.1906,0.2025,0.2029,0.2032,0.2033,0,0,0.2044,0.2046,0,0,0,0,0,0,0,0,0.1824,0.1827,0.1903,0.1905,0.1907,0.1913,0.1919,0.1956,0.1902,0.1893,0.1905,0.1906,0.2005,0.2011,0.1994,0.2039,0.2044,0.2044,0.2047,0.2048,0.2049,0,0,0,0,0,0,0,0.1823,0.1826,0.1889,0.1904,0.1907,0.1887,0.189,0.1925,0.1937,0.1894,0.1897,0.1914,0.2006,0.199,0.1997,0.2046,0.2044,0.2048,0.205,0.2052,0.2205,0.2207,0,0,0,0,0,0,0.1844,0.1825,0.1889,0.1891,0.1879,0.1889,0.1892,0.1902,0.1934,0.1942,0.1913,0.1914,0.1983,0.1993,0.2002,0.2132,0.2048,0.2052,0.2054,0.2204,0.2206,0.2208,0,0,0,0,0,0,0.1842,0.185,0.1889,0.1867,0.1872,0.1891,0.1901,0.1902,0.1919,0.1949,0.1957,0.1935,0.1984,0.1997,0.2065,0.2133,0.2054,0.2057,0.2201,0.2204,0.2207,0.2313,0,0,0,0,0,0,0.1839,0.1848,0.1872,0.1868,0.1874,0.1912,0.1901,0.1901,0.1931,0.1933,0.1971,0.198,0.1986,0.2059,0.2069,0.2136,0.206,0.2199,0.2203,0.2206,0.2307,0.2319,0.2329,0,0,0,0,0,0.1836,0.1854,0.1872,0.1882,0.1902,0.1915,0.1915,0.1924,0.1932,0.1942,0.1975,0.1981,0.2088,0.2064,0.2074,0.2145,0.2198,0.2202,0.2206,0.2302,0.2316,0.2328,0,0,0,0,0,0,0.1821,0.1857,0.1876,0.1904,0.1927,0.1919,0.1939,0.1943,0.197,0.1982,0.2003,0.2016,0.2106,0.21,0.2074,0.2195,0.2144,0.2151,0.2214,0.2228,0.2238,0.2234,0.2063,0,0,0,0,0,0.1834,0.1857,0.1889,0.1911,0.1934,0.1943,0.1955,0.1958,0.198,0.1992,0.2035,0.2074,0.2122,0.2155,0.2192,0.2255,0.2262,0.2305,0.2316,0.2326,0.2328,0.2381,0.2398,0.2221,0.2221,0.2221,0,0,0.1839,0.1858,0.1876,0.1911,0.193,0.1956,0.1951,0.1975,0.2001,0.2005,0.2078,0.2123,0.2147,0.2224,0.2264,0.2235,0.2386,0.2331,0.2339,0.2336,0.2388,0.2405,0.242,0.2224,0.2223,0.2223,0,0,0.1835,0.1879,0.1897,0.1923,0.1964,0.1976,0.1996,0.2027,0.2054,0.2119,0.2139,0.2206,0.2288,0.231,0.2331,0.2416,0.2445,0.2457,0.2513,0.2566,0.2581,0.2595,0.2653,0.267,0.2459,0.246,0.246,0,0.1846,0.1863,0.1903,0.1925,0.1952,0.1994,0.2015,0.2048,0.21,0.2138,0.2162,0.2296,0.2317,0.2399,0.244,0.2442,0.2493,0.2466,0.2582,0.2595,0.2607,0.2663,0.2681,0.2465,0.2464,0.2464,0.2463,0,0.1843,0.1876,0.1892,0.194,0.1973,0.1998,0.2059,0.2111,0.2169,0.2212,0.2335,0.2382,0.2459,0.2492,0.2501,0.261,0.2628,0.2595,0.2551,0.2631,0.2685,0.2702,0.2473,0.2471,0.2469,0.2468,0,0,0.1827,0.1879,0.1893,0.1911,0.1982,0.2001,0.2074,0.2145,0.2204,0.2307,0.2397,0.2498,0.256,0.2586,0.2625,0.268,0.2813,0.2699,0.2699,0.2761,0.2974,0.2779,0.2779,0.2833,0.2836,0.2838,0.2988,0,0.1819,0.1841,0.1882,0.1925,0.1945,0.2017,0.2082,0.2158,0.2248,0.2358,0.2449,0.2561,0.2588,0.266,0.2725,0.2802,0.2861,0.2777,0.2882,0.2885,0.2704,0.2791,0.2847,0.3001,0.3005,0.3007,0.3009,0,0.1807,0.1819,0.1851,0.1909,0.1933,0.1984,0.2093,0.2159,0.2313,0.2399,0.2536,0.2623,0.2766,0.2755,0.2935,0.2905,0.2953,0.299,0.2996,0.2781,0.2719,0.2896,0.3039,0.3037,0.3035,0.3033,0.3031,0,0.1751,0.1803,0.1823,0.1846,0.1927,0.1978,0.2048,0.2182,0.2264,0.2452,0.2551,0.2715,0.2846,0.2931,0.3048,0.302,0.3226,0.3167,0.3028,0.3017,0.3101,0.3085,0.3257,0.3257,0.3256,0.3256,0.3256,0,0.1706,0.1724,0.1808,0.1822,0.1869,0.1956,0.2054,0.2148,0.2319,0.2437,0.2594,0.2717,0.291,0.3049,0.3097,0.3139,0.3268,0.3053,0.304,0.3145,0.3132,0.3115,0.3096,0.3262,0.326,0.3259,0.3258,0,0.1617,0.1678,0.1701,0.1798,0.1844,0.1884,0.2052,0.2119,0.2309,0.2472,0.255,0.2792,0.2963,0.3101,0.3261,0.3196,0.3233,0.3202,0.3349,0.334,0.2976,0.2962,0.3042,0.3036,0.3031,0.3027,0.3024,0,0.1538,0.1553,0.1673,0.1698,0.1748,0.1841,0.1909,0.2101,0.2182,0.2493,0.2553,0.2804,0.2939,0.3032,0.3164,0.3226,0.3181,0.3186,0.3028,0.2974,0.2955,0.2948,0.294,0.3016,0.3015,0.3014,0.3013,0,0.1377,0.1467,0.1517,0.1593,0.1664,0.1721,0.1842,0.1902,0.2143,0.2337,0.2516,0.2629,0.2814,0.2928,0.3014,0.3039,0.3168,0.3134,0.3141,0.2993,0.2944,0.2928,0.2926,0.2996,0.2998,0.3,0.3001,0,0.1278,0.1296,0.1406,0.1466,0.1539,0.1572,0.1662,0.1785,0.1911,0.2251,0.2316,0.2577,0.2805,0.2834,0.2909,0.2926,0.2853,0.2748,0.2774,0.2794,0.2637,0.2534,0.2461,0,0,0,0,0,0.1151,0.1198,0.1248,0.1323,0.1393,0.1442,0.1594,0.1701,0.1951,0.2017,0.2166,0.2318,0.2468,0.2594,0.2556,0.2755,0.2838,0.2696,0.2722,0.2903,0.2922,0.2756,0,0,0,0,0,0,0.1089,0.114,0.1207,0.1181,0.1208,0.1275,0.137,0.1548,0.1593,0.1864,0.1952,0.216,0.2321,0.2464,0.2508,0.2541,0.2507,0.2849,0.2843,0.2892,0.291,0.2925,0.2761,0,0,0,0,0]},{"header":{"parameterUnit":"m.s-1","parameterCategory":2,"la1":30.2991,"la2":30.254,"lo1":-89.0895,"lo2":-89.0444,"dy":0.0017,"dx":0.0017,"nx":28,"ny":28,"refTime":"2024-07-06T09:00:00:Z","depth":"4","parameterNumber":3,"parameterNumberName":"V-component_of_CURRENTS"},"data":[0,0,0,0,0,0,0,0,0,0,0,0,0,0,0,0,0,0,0,0,0,0,0,0,0,0,0,0,0,0,0,0,0,0,0,0,0,0,0,0,0,0,0,0,0,0,0,0,0,0,0,0,0,0,0,0,0,0,0.0177,0.0177,0,0.0171,0.0171,0.0171,0.0168,0.0168,0.0168,0.0168,0.0116,0.0114,0.0113,0,0,0,0,0,0,0,0,0,0,0,0,0,0.0155,0.0155,0.0177,0.0177,0.0177,0.0171,0.0171,0.0171,0.0168,0.0168,0.0168,0.0168,0.0116,0.0114,0.0113,0,0,0,0,0,0,0,0,0,0,0,0,0,0.0159,0.0155,0.0177,0.0174,0.0173,0.0171,0.0171,0.0171,0.0168,0.0168,0.0168,0.0168,0.0117,0.0115,0.0113,0.0103,0,0,0.0107,0.0106,0,0,0,0,0,0,0,0,0.0159,0.016,0.0174,0.0174,0.0174,0.017,0.0144,0.0146,0.0168,0.0171,0.0168,0.0168,0.0129,0.0126,0.0127,0.01,0.0098,0.0106,0.0105,0.0104,0.0104,0,0,0,0,0,0,0,0.0158,0.016,0.0175,0.0174,0.0174,0.0162,0.0163,0.0145,0.015,0.017,0.017,0.0168,0.0129,0.0129,0.0125,0.0097,0.0107,0.0105,0.0104,0.0103,0.008,0.008,0,0,0,0,0,0,0.016,0.016,0.0175,0.0175,0.0165,0.0163,0.0164,0.0172,0.0151,0.0148,0.0169,0.0168,0.0132,0.0128,0.0123,0.0142,0.0104,0.0103,0.0101,0.0079,0.008,0.0081,0,0,0,0,0,0,0.0159,0.0162,0.0176,0.0166,0.0167,0.0164,0.0172,0.0171,0.018,0.015,0.0147,0.0178,0.0132,0.0126,0.0125,0.0139,0.0102,0.01,0.0079,0.008,0.008,0.0159,0,0,0,0,0,0,0.0159,0.0162,0.0168,0.0167,0.0168,0.0187,0.0172,0.0171,0.0178,0.0178,0.0157,0.0152,0.0131,0.0129,0.0123,0.0135,0.0098,0.0078,0.0079,0.008,0.0155,0.0162,0.0168,0,0,0,0,0,0.0158,0.0179,0.0169,0.017,0.0177,0.0187,0.0187,0.0184,0.0179,0.019,0.018,0.0153,0.0131,0.0128,0.0122,0.0133,0.0077,0.0079,0.008,0.0152,0.0161,0.0168,0,0,0,0,0,0,0.0176,0.018,0.0169,0.0189,0.0189,0.0187,0.0197,0.0191,0.0192,0.0195,0.0165,0.0159,0.016,0.0136,0.0133,0.0128,0.0098,0.0098,0.0155,0.0162,0.0168,0.0172,0.0097,0,0,0,0,0,0.018,0.0195,0.0191,0.0206,0.0208,0.0201,0.0204,0.0206,0.0204,0.0205,0.0188,0.0171,0.0159,0.0154,0.0137,0.0138,0.009,0.0139,0.0145,0.0151,0.0149,0.0089,0.009,0.0085,0.0085,0.0085,0,0,0.0191,0.0193,0.0202,0.021,0.0209,0.0228,0.0204,0.0221,0.0239,0.0198,0.0215,0.0191,0.0164,0.0168,0.0165,0.0152,0.0128,0.0152,0.0158,0.0153,0.009,0.0091,0.0091,0.0086,0.0086,0.0085,0,0,0.0228,0.0222,0.0249,0.0253,0.0258,0.0255,0.0262,0.0264,0.0266,0.0278,0.0252,0.0237,0.0224,0.0204,0.0193,0.0221,0.0161,0.0217,0.0255,0.0198,0.0197,0.0196,0.014,0.0134,0.0223,0.0223,0.0223,0,0.0235,0.0273,0.0257,0.0284,0.0297,0.0271,0.0308,0.0304,0.0305,0.031,0.0295,0.0269,0.024,0.0239,0.0249,0.0234,0.0193,0.0233,0.0205,0.0203,0.0201,0.0144,0.0135,0.0227,0.0226,0.0226,0.0226,0,0.0293,0.0323,0.0341,0.0364,0.0373,0.0401,0.0393,0.0399,0.0393,0.0385,0.0381,0.034,0.0326,0.0311,0.029,0.0268,0.0241,0.0219,0.0187,0.0206,0.0145,0.0135,0.0232,0.0231,0.023,0.0229,0,0,0.0314,0.0372,0.0378,0.0412,0.0423,0.0443,0.0462,0.0477,0.0496,0.0471,0.0487,0.0449,0.0418,0.0401,0.0363,0.0309,0.0254,0.0264,0.026,0.0211,0.0127,0.0101,0.0087,0.0229,0.0227,0.0226,0.0092,0,0.0365,0.0445,0.0454,0.0526,0.0568,0.0553,0.0576,0.058,0.0569,0.0571,0.0515,0.0514,0.0456,0.0455,0.039,0.0291,0.0231,0.0292,0.0113,0.0108,0.0084,0.0076,0.0222,0.0084,0.0082,0.008,0.0079,0,0.042,0.047,0.056,0.0624,0.064,0.0678,0.0711,0.0731,0.0711,0.0702,0.0673,0.0621,0.0554,0.0499,0.0325,0.0369,0.0256,0.0165,0.0157,0.0097,0.0063,0.0058,0.006,0.0061,0.0063,0.0064,0.0065,0,0.0459,0.0543,0.0625,0.0647,0.0709,0.0751,0.0782,0.0781,0.0818,0.0792,0.0801,0.0701,0.0668,0.0507,0.0319,0.0323,0.011,0.0092,-0.0042,-0.0045,-0.0016,-0.0014,-0.0042,-0.0041,-0.0041,-0.0041,-0.004,0,0.0512,0.0578,0.0662,0.0709,0.0812,0.0823,0.0918,0.0921,0.0942,0.0984,0.0884,0.0873,0.0667,0.0522,0.0338,0.0115,0.0121,-0.0044,-0.0084,0.0021,0.0029,-0.0024,-0.002,-0.0046,-0.0045,-0.0044,-0.0043,0,0.0548,0.0602,0.0703,0.0796,0.0845,0.0918,0.1039,0.1097,0.1091,0.1138,0.1137,0.1009,0.0804,0.0572,0.0302,0.0157,-0.0065,-0.0146,-0.0018,-0.0047,-0.0186,-0.0176,-0.0304,-0.0307,-0.0308,-0.031,-0.0311,0,0.0581,0.0642,0.0777,0.0854,0.0915,0.1038,0.1131,0.1184,0.124,0.1213,0.1232,0.106,0.0936,0.0539,0.0285,-0.0077,-0.0128,-0.0232,-0.0215,-0.0188,-0.0214,-0.0202,-0.019,-0.0314,-0.0314,-0.0315,-0.0315,0,0.0642,0.0688,0.0772,0.0927,0.1055,0.1193,0.1318,0.137,0.1406,0.1401,0.1302,0.109,0.0852,0.0537,0.0251,-0.0005,-0.0159,-0.0252,-0.0249,-0.0234,-0.0201,-0.0222,-0.0209,-0.0321,-0.032,-0.032,-0.032,0,0.0692,0.0755,0.0865,0.1001,0.1151,0.1288,0.1361,0.142,0.1475,0.1422,0.1386,0.1116,0.0967,0.0572,0.031,0.0049,-0.0015,-0.0081,-0.0089,-0.0086,0.0012,0.0088,0.0017,0,0,0,0,0,0.074,0.0817,0.0934,0.1088,0.122,0.1311,0.1454,0.1505,0.1536,0.1479,0.1432,0.1198,0.0793,0.062,0.0352,0.027,-0.006,-0.005,-0.0139,-0.0355,-0.0348,-0.0274,0,0,0,0,0,0,0.0776,0.0893,0.0937,0.1118,0.122,0.1395,0.1484,0.1517,0.1477,0.1447,0.1233,0.1127,0.0732,0.0931,0.034,0.0261,0.017,-0.024,-0.0246,-0.0359,-0.0353,-0.0347,-0.0268,0,0,0,0,0]}]]